CW4086 Weather Reports


Display with metric or nautical units.
time (UTC)temp
F
wind
direction
speed
MPH
gust
MPH
rain 1hr
in
rain 24hr
in
rain mn
in
humidity
%
barometer
mb
20260505230604 62 273 6.0 12.0 0.00 0.23 0.23 54 1014.6
20260505230105 61 252 2.0 7.0 0.00 0.23 0.23 57 1014.6
20260505225604 60 247 4.0 6.0 0.00 0.23 0.23 56 1014.8
20260505225104 60 270 4.0 7.0 0.00 0.23 0.23 56 1014.8
20260505224604 59 336 3.0 8.0 0.00 0.23 0.23 56 1014.8
20260505224104 59 290 3.0 8.0 0.00 0.23 0.23 58 1014.8
20260505223604 59 336 3.0 7.0 0.00 0.23 0.23 59 1014.9
20260505223105 59 291 2.0 10.0 0.00 0.23 0.23 61 1014.9
20260505222604 58 287 3.0 10.0 0.00 0.23 0.23 60 1014.9
20260505222104 58 262 5.0 8.0 0.00 0.23 0.23 60 1014.9
20260505221604 58 261 3.0 7.0 0.00 0.23 0.23 60 1015.0
20260505221106 58 288 2.0 7.0 0.00 0.23 0.23 62 1015.1
20260505220603 58 287 5.0 7.0 0.00 0.23 0.23 62 1015.2
20260505220105 58 290 3.0 6.0 0.00 0.23 0.23 62 1015.3
20260505215604 58 303 3.0 6.0 0.00 0.23 0.23 63 1015.3
20260505215104 58 289 3.0 5.0 0.00 0.23 0.23 61 1015.3
20260505214604 58 290 1.0 5.0 0.00 0.23 0.23 62 1015.3
20260505214104 58 283 2.0 5.0 0.00 0.23 0.23 62 1015.3
20260505213604 58 270 1.0 3.0 0.00 0.23 0.23 62 1015.3
20260505213104 58 270 1.0 3.0 0.00 0.23 0.23 62 1015.4
20260505212603 58 270 0.0 3.0 0.00 0.23 0.23 62 1015.4
20260505212104 58 298 1.0 3.0 0.00 0.23 0.23 63 1015.4
20260505211604 57 298 0.0 5.0 0.00 0.23 0.23 63 1015.4
20260505211106 57 298 2.0 5.0 0.00 0.23 0.23 64 1015.4
20260505210604 57 314 3.0 5.0 0.00 0.23 0.23 64 1015.4
20260505210104 57 307 2.0 5.0 0.00 0.23 0.23 64 1015.4
20260505205604 57 295 2.0 3.0 0.00 0.23 0.23 63 1015.4
20260505204604 57 295 1.0 3.0 0.00 0.23 0.23 65 1015.4
20260505204105 57 298 1.0 8.0 0.00 0.23 0.23 66 1015.4
20260505203604 57 298 2.0 8.0 0.00 0.23 0.23 66 1015.4
20260505203104 57 321 5.0 8.0 0.00 0.23 0.23 66 1015.4
20260505202604 57 303 2.0 5.0 0.00 0.23 0.23 66 1015.4
20260505202104 57 303 2.0 6.0 0.00 0.23 0.23 67 1015.4
20260505201604 57 294 3.0 7.0 0.00 0.23 0.23 67 1015.4
20260505201106 57 242 3.0 12.0 0.00 0.23 0.23 66 1015.5
20260505200604 58 255 5.0 12.0 0.00 0.23 0.23 66 1015.5
20260505200105 58 226 3.0 6.0 0.00 0.23 0.23 68 1015.5
20260505195104 57 254 1.0 6.0 0.00 0.23 0.23 73 1015.5
20260505194604 57 280 3.0 6.0 0.00 0.23 0.23 72 1015.6
20260505194104 57 24 1.0 5.0 0.00 0.23 0.23 76 1015.8
20260505193604 56 39 1.0 3.0 0.00 0.23 0.23 78 1015.8
20260505193104 56 44 1.0 3.0 0.00 0.23 0.23 79 1015.8
20260505192604 56 144 0.0 5.0 0.00 0.23 0.23 82 1015.8
20260505192105 56 153 2.0 5.0 0.00 0.23 0.23 83 1015.8
20260505191603 56 63 1.0 2.0 0.00 0.23 0.23 87 1015.9
20260505191107 55 63 1.0 3.0 0.00 0.23 0.23 89 1015.9
20260505190604 55 63 0.0 3.0 0.00 0.23 0.23 90 1015.9
20260505190104 55 63 2.0 3.0 0.00 0.23 0.23 91 1015.8
20260505185604 55 65 1.0 3.0 0.00 0.23 0.23 92 1015.9
20260505185104 56 129 0.0 3.0 0.00 0.23 0.23 94 1015.8
20260505184604 55 74 1.0 5.0 0.00 0.23 0.23 93 1015.8
20260505184104 55 66 1.0 5.0 0.00 0.23 0.23 95 1015.8
20260505183604 54 79 1.0 3.0 0.00 0.23 0.23 95 1015.8
20260505183104 54 78 0.0 3.0 0.00 0.23 0.23 95 1015.9
20260505182105 54 83 0.0 5.0 0.00 0.23 0.23 95 1015.9
20260505181605 54 164 0.0 3.0 0.00 0.23 0.23 96 1016.0
20260505180604 54 205 0.0 3.0 0.00 0.23 0.23 96 1016.1
20260505175103 53 205 0.0 2.0 0.00 0.23 0.23 96 1015.9
20260505174604 53 226 0.0 2.0 0.00 0.23 0.23 96 1015.8
20260505173104 52 226 0.0 2.0 0.00 0.23 0.23 100 1015.8
20260505172603 52 226 0.0 2.0 0.00 0.23 0.23 100 1015.8
20260505171604 51 226 0.0 1.0 0.00 0.23 0.23 100 1015.6
20260505171107 51 226 0.0 2.0 0.00 0.23 0.23 100 1015.4
20260505170603 51 227 1.0 2.0 0.01 0.23 0.23 98 1015.4
20260505170104 51 226 0.0 3.0 0.01 0.23 0.23 100 1015.3
20260505165603 51 226 0.0 3.0 0.01 0.23 0.23 100 1015.2
20260505165105 51 227 2.0 3.0 0.01 0.23 0.23 100 1015.2
20260505164604 51 259 0.0 2.0 0.01 0.23 0.23 100 1015.1
20260505164104 51 259 0.0 2.0 0.01 0.23 0.23 100 1015.1
20260505163604 51 259 1.0 5.0 0.01 0.23 0.23 100 1015.1
20260505163104 51 255 2.0 5.0 0.01 0.23 0.23 100 1015.1
20260505162604 51 290 1.0 3.0 0.01 0.23 0.23 100 1015.1
20260505162104 51 313 1.0 5.0 0.01 0.23 0.23 100 1014.9
20260505161604 51 315 1.0 5.0 0.01 0.23 0.23 100 1014.7
20260505161107 51 306 1.0 3.0 0.01 0.23 0.23 100 1014.6
20260505160104 51 294 1.0 5.0 0.00 0.22 0.22 100 1014.6
20260505153104 51 274 2.0 3.0 0.02 0.22 0.22 100 1014.4
20260505152605 51 288 1.0 2.0 0.02 0.22 0.22 100 1014.3
20260505152104 51 288 1.0 2.0 0.03 0.22 0.22 96 1014.3
20260505151604 51 288 0.0 2.0 0.03 0.22 0.22 99 1014.2
20260505151107 52 288 1.0 2.0 0.05 0.22 0.22 100 1014.2
20260505150604 51 290 0.0 1.0 0.05 0.22 0.22 100 1014.1
20260505140604 50 229 1.0 2.0 0.06 0.17 0.17 95 1014.0
20260505140104 50 267 1.0 3.0 0.07 0.17 0.17 95 1014.0
20260505130105 50 153 0.0 1.0 0.01 0.10 0.10 94 1013.5
20260505124104 50 173 0.0 1.0 0.02 0.10 0.10 94 1013.5
20260505123604 50 173 0.0 1.0 0.02 0.10 0.10 94 1013.5
20260505123104 50 175 0.0 1.0 0.02 0.10 0.10 94 1013.5
20260505122604 50 175 0.0 1.0 0.02 0.10 0.10 93 1013.5
20260505122104 50 175 0.0 1.0 0.02 0.10 0.10 93 1013.5
20260505121604 50 175 0.0 0.0 0.02 0.10 0.10 93 1013.5
20260505121106 50 175 0.0 0.0 0.02 0.10 0.10 93 1013.5
20260505120604 50 175 0.0 0.0 0.01 0.09 0.09 93 1013.5
20260505120104 50 175 0.0 0.0 0.01 0.09 0.09 93 1013.5
20260505115604 50 175 0.0 0.0 0.01 0.09 0.09 93 1013.6
20260505115104 50 175 0.0 1.0 0.01 0.09 0.09 93 1013.6
20260505114603 50 175 0.0 1.0 0.01 0.09 0.09 93 1013.7
20260505114104 50 175 0.0 0.0 0.00 0.08 0.08 93 1013.6
20260505113604 50 175 0.0 0.0 0.00 0.08 0.08 93 1013.6
20260505113104 50 175 0.0 0.0 0.00 0.08 0.08 93 1013.6
20260505111604 49 175 0.0 0.0 0.00 0.08 0.08 93 1013.6
20260505111107 49 175 0.0 1.0 0.00 0.08 0.08 92 1013.6
20260505110604 49 175 0.0 1.0 0.00 0.08 0.08 92 1013.5
20260505110104 49 175 0.0 1.0 0.00 0.08 0.08 92 1013.5
20260505102104 49 175 0.0 1.0 0.00 0.08 0.08 92 1013.7
20260505101605 49 175 0.0 1.0 0.00 0.08 0.08 92 1013.8
20260505101106 49 175 0.0 0.0 0.00 0.08 0.08 92 1013.8
20260505100604 49 175 0.0 0.0 0.00 0.08 0.08 92 1013.9
20260505100105 49 175 0.0 0.0 0.00 0.08 0.08 91 1013.9
20260505095604 49 175 0.0 0.0 0.01 0.08 0.08 91 1014.0
20260505095104 49 175 0.0 1.0 0.01 0.08 0.08 91 1014.0
20260505094104 49 175 0.0 1.0 0.02 0.08 0.08 91 1014.1
20260505093605 49 175 0.0 1.0 0.02 0.08 0.08 91 1014.1
20260505093103 50 175 0.0 1.0 0.02 0.08 0.08 91 1014.1
20260505092604 50 175 0.0 1.0 0.02 0.08 0.08 91 1014.1
20260505092104 50 175 0.0 1.0 0.02 0.08 0.08 90 1014.3
20260505091604 50 175 0.0 1.0 0.02 0.08 0.08 90 1014.4
20260505091107 50 197 0.0 1.0 0.02 0.08 0.08 90 1014.6
20260505090105 50 197 0.0 1.0 0.02 0.08 0.08 90 1014.7
20260505085604 50 197 0.0 1.0 0.01 0.07 0.07 90 1014.8
20260505085104 50 197 0.0 0.0 0.01 0.07 0.07 90 1014.8
20260505084604 50 197 0.0 1.0 0.00 0.06 0.06 89 1015.0
20260505083104 51 197 0.0 1.0 0.02 0.06 0.06 89 1015.0
20260505082604 51 200 0.0 1.0 0.05 0.06 0.06 89 1015.1
20260505082103 51 209 0.0 1.0 0.06 0.06 0.06 89 1015.2
20260505081605 51 223 0.0 1.0 0.06 0.06 0.06 89 1015.2
20260505080604 51 223 0.0 1.0 0.06 0.06 0.06 88 1015.2
20260505080104 51 223 0.0 2.0 0.06 0.06 0.06 88 1015.2
20260505075604 51 223 0.0 2.0 0.06 0.06 0.06 87 1015.3
20260505075104 51 285 1.0 2.0 0.06 0.06 0.06 87 1015.3
20260505074604 51 256 1.0 2.0 0.06 0.06 0.06 86 1015.4
20260505074104 51 301 1.0 2.0 0.06 0.06 0.06 86 1015.5
20260505073604 51 317 1.0 2.0 0.06 0.06 0.06 85 1015.4
20260505073104 52 203 1.0 2.0 0.05 0.05 0.05 83 1015.3
20260505072604 53 132 1.0 2.0 0.02 0.02 0.02 83 1015.2
20260505072104 53 216 0.0 1.0 0.00 0.00 0.00 83 1015.1
20260505071604 53 216 0.0 1.0 0.00 0.00 0.00 82 1015.2
20260505070604 52 216 0.0 2.0 0.00 0.00 0.00 81 1015.3
20260505070104 52 216 0.0 2.0 0.00 0.00 0.00 81 1015.2
20260505065604 52 308 0.0 2.0 0.00 0.00 0.00 81 1015.2
20260505065104 52 248 0.0 2.0 0.00 0.00 0.00 81 1015.3
20260505064604 52 228 0.0 2.0 0.00 0.00 0.00 81 1015.3
20260505064104 53 179 0.0 2.0 0.00 0.00 0.00 80 1015.4
20260505063604 53 177 0.0 2.0 0.00 0.00 0.00 80 1015.4
20260505063104 53 208 1.0 2.0 0.00 0.00 0.00 79 1015.3
20260505062604 53 242 0.0 1.0 0.00 0.00 0.00 79 1015.3
20260505062104 53 242 0.0 2.0 0.00 0.00 0.00 79 1015.3
20260505061604 53 289 0.0 2.0 0.00 0.00 0.00 78 1015.4
20260505061106 53 0 1.0 3.0 0.00 0.00 0.00 77 1015.5
20260505060604 53 279 1.0 3.0 0.00 0.00 0.00 76 1015.5
20260505060105 53 274 1.0 3.0 0.00 0.00 0.00 77 1015.5
20260505054604 54 195 0.0 1.0 0.00 0.00 0.00 77 1015.6
20260505054104 54 190 0.0 1.0 0.00 0.00 0.00 77 1015.6
20260505053604 54 189 0.0 2.0 0.00 0.00 0.00 76 1015.6
20260505053104 54 203 0.0 2.0 0.00 0.00 0.00 76 1015.6
20260505052604 54 174 1.0 2.0 0.00 0.00 0.00 76 1015.6
20260505051604 54 141 0.0 2.0 0.00 0.00 0.00 75 1015.6
20260505051107 54 209 1.0 2.0 0.00 0.00 0.00 75 1015.6
20260505050604 54 329 1.0 3.0 0.00 0.00 0.00 75 1015.6
20260505050104 54 295 1.0 3.0 0.00 0.00 0.00 74 1015.6
20260505041605 54 333 1.0 3.0 0.00 0.00 0.00 73 1015.5
20260505041106 54 353 1.0 3.0 0.00 0.00 0.00 73 1015.5
20260505040104 54 196 1.0 3.0 0.00 0.00 0.00 71 1015.4
20260505035606 54 303 1.0 3.0 0.00 0.00 0.00 71 1015.3
20260505035104 55 284 1.0 3.0 0.00 0.00 0.00 71 1015.1
20260505034604 55 248 1.0 3.0 0.00 0.00 0.00 71 1015.1
20260505034104 55 270 1.0 3.0 0.00 0.00 0.00 71 1015.1
20260505033604 55 258 1.0 3.0 0.00 0.00 0.00 71 1015.1
20260505033104 55 306 2.0 5.0 0.00 0.00 0.00 70 1015.0
20260505032604 56 274 1.0 7.0 0.00 0.00 0.00 69 1015.0
20260505031603 56 296 2.0 7.0 0.00 0.00 0.00 68 1015.0
20260505031106 56 262 1.0 3.0 0.00 0.00 0.00 68 1014.9
20260505030606 56 302 1.0 3.0 0.00 0.00 0.00 67 1014.8
20260505030104 57 333 1.0 3.0 0.00 0.00 0.00 66 1014.7
20260505025604 57 287 1.0 6.0 0.00 0.00 0.00 64 1014.7
20260505024104 57 275 3.0 6.0 0.00 0.00 0.00 63 1014.6
20260505023604 57 278 3.0 7.0 0.00 0.00 0.00 63 1014.7
20260505023104 57 284 3.0 9.0 0.00 0.00 0.00 62 1014.6
20260505022604 57 272 4.0 9.0 0.00 0.00 0.00 62 1014.6
20260505022104 57 267 5.0 9.0 0.00 0.00 0.00 62 1014.6
20260505021604 57 290 3.0 8.0 0.00 0.00 0.00 61 1014.6
20260505021106 57 280 3.0 8.0 0.00 0.00 0.00 61 1014.6
20260505020604 58 287 3.0 8.0 0.00 0.00 0.00 60 1014.6
20260505020104 58 299 4.0 10.0 0.00 0.00 0.00 59 1014.6
20260505015604 58 273 5.0 10.0 0.00 0.00 0.00 58 1014.6
20260505015104 58 304 5.0 12.0 0.00 0.00 0.00 58 1014.5
20260505014604 59 281 5.0 12.0 0.00 0.00 0.00 57 1014.4
20260505014104 59 281 6.0 12.0 0.00 0.00 0.00 57 1014.5
20260505013103 60 300 7.0 15.0 0.00 0.00 0.00 55 1014.5
20260505012104 62 295 9.0 17.0 0.00 0.00 0.00 50 1014.4
20260505011107 61 293 2.0 5.0 0.00 0.00 0.00 50 1014.5
20260505010604 61 273 2.0 7.0 0.00 0.00 0.00 50 1014.5
20260505005603 61 275 3.0 6.0 0.00 0.00 0.00 48 1014.6
20260505005104 61 260 2.0 5.0 0.00 0.00 0.00 47 1014.5
20260505004603 61 325 2.0 6.0 0.00 0.00 0.00 48 1014.5
20260505004103 61 329 1.0 6.0 0.00 0.00 0.00 47 1014.5
20260505003604 61 265 3.0 6.0 0.00 0.00 0.00 47 1014.5
20260505003104 61 266 3.0 6.0 0.00 0.00 0.00 45 1014.5
20260505002604 61 251 3.0 6.0 0.00 0.00 0.00 44 1014.6
20260505002104 61 257 3.0 6.0 0.00 0.00 0.00 45 1014.6
20260505001604 61 277 2.0 5.0 0.00 0.00 0.00 47 1014.6
20260505001106 61 264 2.0 5.0 0.00 0.00 0.00 46 1014.7
20260505000104 61 277 5.0 8.0 0.00 0.00 0.00 46 1014.6
20260504235605 61 275 5.0 7.0 0.00 0.00 0.00 47 1014.6
20260504234604 61 284 2.0 7.0 0.00 0.00 0.00 49 1014.6
20260504234104 61 279 3.0 6.0 0.00 0.00 0.00 47 1014.6
20260504233603 61 299 1.0 3.0 0.00 0.00 0.00 47 1014.6
20260504232604 61 284 3.0 8.0 0.00 0.00 0.00 47 1014.6
20260504232103 61 316 4.0 9.0 0.00 0.00 0.00 49 1014.6
20260504231604 61 280 4.0 12.0 0.00 0.00 0.00 48 1014.6
20260504231106 61 274 6.0 12.0 0.00 0.00 0.00 48 1014.6